Location: Unspecified
(43.4680°N, 87.1740°E)
Time: 09:58:41
(UTC+00:00)

Ariane Rocket - Pass Details

Date: 17 January 2020
Orbit: 761 x 769 km, 98.7° (Epoch: 18 February)

Event Time Altitude Azimuth Distance (km) Brightness Sun altitude
Enters shadow 13:06:26 - 156° (SSE) 3,229 6.1 -22.1°
Exits shadow 13:12:30 48° 132° (SE) 995 3.3 -23.2°
Maximum altitude 13:13:46 66° 73° (ENE) 835 2.9 -23.5°
Drops below altitude 10° 13:18:49 10° 352° (N) 2,311 5.5 -24.4°
Sets 13:21:08 0° 349° (N) 3,243 6.3 -24.8°
